Weather in Krugloozernoye

Russia / Novosibirsk Oblast     55°04′45″N   79°17′49″E
temp.,
°C
wind,
m/s
gust,
m/s
humid.,
%
clouds,
%
prec.,
mm/h
press.,
hPa
HPBL,
m
2 march, tue
tue201:00−16ne339691 0.1 101243
04:00−15n239699 0.1 101266
07:00−18nnw229792 0.2 101420
10:00−19nw229786 0.0 101630
13:00−15w229192 0.1 1016242
16:00−13wsw3492100 0.0 1016365
19:00−17wsw129799 0.1 101620
22:00−18ssw229797 0.0 101620
3 march, wed
wed301:00−18ssw229794 0.0 101720
04:00−18ssw239782 0.1 101634
07:00−18ssw239782 0.1 101734
10:00−17ssw249789 0.1 1017153
13:00−14ssw359491 0.1 1018308
16:00−12ssw5893100 0.1 1018459
19:00−13ssw51193100 0.1 1018422
22:00−16ssw61494100 0.0 1018386
4 march, thu
thu401:00−13ssw71394100 0.1 1018485
04:00−11ssw71394100 0.7 1016525
07:00−10ssw71493100 1.2 1016463
10:00−9ssw81493100 0.3 1014502
13:00−6ssw81493100 0.8 1014592
16:00−5ssw91591100 0.4 1012688
19:00−3ssw91692100 0.6 1012816
22:00−3ssw91691100 0.6 1010779
5 march, fri
fri501:00−4ssw91694100 0.8 1009667
04:00−4ssw81493100 0.3 1008633
07:00−6s71395100 1.0 1007454
10:00−6ssw71295100 1.2 1007515
13:00−4w81290100 1.8 10101080
16:00−5wsw8148245 0.1 1013886
19:00−7sw8168757 0.1 1015716
22:00−6sw101693100 0.8 10151038
6 march, sat
sat601:00−5sw101891100 1.3 1014955
04:00−4sw101794100 1.4 1012981
07:00−6sw101793100 2.6 1012881
10:00−6sw101693100 0.8 1011832
13:00−5sw101593100 1.8 1010861
16:00−5sw101594100 0.9 1009858
19:00−4sw91691100 1.7 1009813
22:00−3wsw81595100 0.3 1011873